TimeEST,TemperatureF,Dew PointF,Humidity,Sea Level PressureIn,VisibilityMPH,Wind Direction,Wind SpeedMPH,Gust SpeedMPH,PrecipitationIn,Events,Conditions,WindDirDegrees,DateUTC
12:52 AM,12.0,8.1,84,30.46,10.0,Calm,Calm,-,N/A,,Clear,0,2006-01-23 05:52:00
1:52 AM,12.0,8.1,84,30.45,10.0,Calm,Calm,-,N/A,,Clear,0,2006-01-23 06:52:00
2:52 AM,12.9,9.0,84,30.40,10.0,Calm,Calm,-,N/A,,Clear,0,2006-01-23 07:52:00
3:52 AM,14.0,10.0,84,30.40,10.0,Calm,Calm,-,N/A,,Clear,0,2006-01-23 08:52:00
4:52 AM,14.0,10.9,88,30.35,10.0,Calm,Calm,-,N/A,,Scattered Clouds,0,2006-01-23 09:52:00
5:52 AM,15.1,10.9,84,30.35,10.0,Calm,Calm,-,N/A,,Mostly Cloudy,0,2006-01-23 10:52:00
6:52 AM,16.0,12.0,84,30.32,10.0,Calm,Calm,-,N/A,,Overcast,0,2006-01-23 11:52:00
7:52 AM,17.1,12.9,84,30.28,10.0,Calm,Calm,-,N/A,,Scattered Clouds,0,2006-01-23 12:52:00
8:52 AM,18.0,12.0,78,30.25,10.0,Calm,Calm,-,N/A,,Mostly Cloudy,0,2006-01-23 13:52:00
9:22 AM,19.4,12.2,74,30.16,10.0,Calm,Calm,-,N/A,,Overcast,0,2006-01-23 14:22:00
9:39 AM,19.4,12.2,74,30.14,2.0,Calm,Calm,-,0.00,Snow,Light Snow,0,2006-01-23 14:39:00
9:44 AM,19.4,14.0,80,30.14,1.2,Calm,Calm,-,0.00,Snow,Light Snow,0,2006-01-23 14:44:00
9:52 AM,19.0,14.0,81,30.22,1.0,Calm,Calm,-,0.00,Snow,Light Snow,0,2006-01-23 14:52:00
10:12 AM,19.4,15.8,86,30.13,2.0,Calm,Calm,-,0.00,Snow,Light Snow,0,2006-01-23 15:12:00
10:21 AM,19.4,15.8,86,30.12,4.0,Calm,Calm,-,0.00,Snow,Light Snow,0,2006-01-23 15:21:00
10:49 AM,19.4,15.8,86,30.11,6.0,North,3.5,-,0.00,Snow,Light Snow,350,2006-01-23 15:49:00
10:52 AM,19.9,16.0,85,30.19,6.0,North,3.5,-,0.00,Snow,Light Snow,350,2006-01-23 15:52:00
11:02 AM,19.4,15.8,86,30.10,5.0,NNW,3.5,-,0.00,Snow,Light Snow,340,2006-01-23 16:02:00
11:21 AM,21.2,17.6,86,30.09,1.8,Calm,Calm,-,0.00,Snow,Light Snow,0,2006-01-23 16:21:00
11:24 AM,21.2,17.6,86,30.08,1.2,Calm,Calm,-,0.00,Snow,Light Snow,0,2006-01-23 16:24:00
11:33 AM,21.2,17.6,86,30.07,0.5,Calm,Calm,-,0.00,Fog-Snow,Snow,0,2006-01-23 16:33:00
11:52 AM,21.0,18.0,88,30.14,0.5,Calm,Calm,-,0.00,Fog-Snow,Snow,0,2006-01-23 16:52:00
12:52 PM,23.0,19.9,88,30.07,0.5,Calm,Calm,-,0.00,Fog-Snow,Snow,0,2006-01-23 17:52:00
1:01 PM,23.0,19.4,86,29.99,0.5,Calm,Calm,-,0.00,Fog-Snow,Snow,0,2006-01-23 18:01:00
1:24 PM,24.8,19.4,80,29.97,0.8,Calm,Calm,-,0.00,Snow,Light Snow,0,2006-01-23 18:24:00
1:52 PM,24.1,21.0,88,30.01,0.5,Calm,Calm,-,0.00,Fog-Snow,Snow,0,2006-01-23 18:52:00
2:21 PM,24.8,21.2,86,29.92,1.0,Calm,Calm,-,0.00,Snow,Light Snow,0,2006-01-23 19:21:00
2:36 PM,24.8,21.2,86,29.92,0.8,Calm,Calm,-,0.00,Snow,Light Snow,0,2006-01-23 19:36:00
2:45 PM,24.8,21.2,86,29.91,1.0,Calm,Calm,-,0.00,Snow,Light Snow,0,2006-01-23 19:45:00
2:52 PM,25.0,21.9,88,29.98,1.2,Calm,Calm,-,0.00,Snow,Light Snow,0,2006-01-23 19:52:00
3:22 PM,24.8,23.0,93,29.90,1.8,Calm,Calm,-,0.00,Snow,Light Snow,0,2006-01-23 20:22:00
3:30 PM,26.6,21.2,80,29.89,2.0,Calm,Calm,-,0.00,Snow,Light Snow,0,2006-01-23 20:30:00
3:38 PM,26.6,21.2,80,29.89,3.0,NNW,3.5,-,0.00,Snow,Light Snow,340,2006-01-23 20:38:00
3:52 PM,26.1,23.0,88,29.96,5.0,NNW,5.8,-,0.00,Snow,Light Snow,340,2006-01-23 20:52:00
4:52 PM,26.1,24.1,92,29.94,4.0,Calm,Calm,-,0.00,Snow,Light Snow,0,2006-01-23 21:52:00
5:52 PM,27.0,24.1,89,29.92,9.0,Calm,Calm,-,0.00,,Overcast,0,2006-01-23 22:52:00
6:52 PM,27.0,24.1,89,29.92,10.0,Calm,Calm,-,0.00,,Overcast,0,2006-01-23 23:52:00
7:52 PM,27.0,24.1,89,29.92,4.0,Calm,Calm,-,0.00,,Overcast,0,2006-01-24 00:52:00
8:18 PM,26.6,24.8,93,29.85,7.0,Calm,Calm,-,N/A,,Overcast,0,2006-01-24 01:18:00
9:52 PM,26.1,24.1,92,29.90,10.0,Calm,Calm,-,N/A,,Overcast,0,2006-01-24 02:52:00
10:29 PM,26.6,24.8,93,29.84,10.0,Calm,Calm,-,N/A,,Overcast,0,2006-01-24 03:29:00
10:52 PM,26.1,24.1,92,29.89,10.0,Calm,Calm,-,N/A,,Overcast,0,2006-01-24 03:52:00
11:07 PM,26.6,24.8,93,29.83,10.0,Calm,Calm,-,N/A,,Overcast,0,2006-01-24 04:07:00
11:52 PM,26.1,24.1,92,29.88,10.0,Calm,Calm,-,N/A,,Overcast,0,2006-01-24 04:52:00